London, KY

4:02 PM EST on December 02, 2016 (GMT -0500)
London-Corbin / McKee

Weather History for KLOZ - December, 2011

Change the Weather History Date:

Thursday, December 22, 2011

  Actual Average Record
Temperature  
Mean Temperature 44 °F 37 °F  
Max Temperature 50 °F 46 °F 70 °F (2013)
Min Temperature 38 °F 28 °F -11 °F (1989)
Degree Days  
Heating Degree Days 21 28  
Month to date heating degree days 495 564  
Since 1 July heating degree days 1347 1394  
Cooling Degree Days 0 0  
Month to date cooling degree days 0 0  
Year to date cooling degree days 1249 1190  
Moisture  
Dew Point 42 °F    
Average Humidity 90    
Maximum Humidity 100    
Minimum Humidity 80    
Precipitation  
Precipitation 0.95 in 0.13 in 1.64 in (1990)
Month to date precipitation 3.29 3.10  
Year to date precipitation 60.19 46.00  
Sea Level Pressure  
Sea Level Pressure 30.00 in    
Wind  
Wind Speed 3 mph (North)    
Max Wind Speed 16 mph    
Max Gust Speed 20 mph    
Visibility 7 miles    
Events Rain    
T = Trace of Precipitation, MM = Missing Value Source: NWS Daily Summary

Daily Weather History Graph

Daily Weather History Graph

Search for Another Location

Airport or City:

Trip Planner

Search our weather history database for the weather conditions in past years. The results will help you decide how hot, cold, wet, or windy it might be!

Date:

Astronomy

Dec. 22, 2011 Rise Set
Actual Time 7:46 AM EST 5:23 PM EST
Civil Twilight 7:17 AM EST 5:52 PM EST
Nautical Twilight 6:44 AM EST 6:24 PM EST
Astronomical Twilight 6:13 AM EST 6:56 PM EST
Moon 5:29 AM EST (12/22) 3:32 PM EST (12/22)
Length of Visible Light 10h 34m
Length of Day
9h 36m
Waning Crescent, 6% of the Moon is Illuminated
Dec 22
Waning Crescent
Dec 24
New
Jan 1
First Quarter
Jan 9
Full
Jan 16
Last Quarter

Hourly Weather History & Observations

Time (EST) Temp. Windchill Dew Point Humidity Pressure Visibility Wind Dir Wind Speed Gust Speed Precip Events Conditions
12:53 AM 41.0 °F - 39.0 °F 93% 30.01 in 10.0 mi Calm Calm - N/A   Clear
1:53 AM 39.0 °F - 37.9 °F 96% 30.03 in 9.0 mi Calm Calm - N/A   Clear
2:53 AM 37.9 °F - 37.0 °F 97% 30.05 in 9.0 mi Calm Calm - N/A   Clear
3:53 AM 37.9 °F - 37.0 °F 97% 30.05 in 10.0 mi Calm Calm - N/A   Clear
4:53 AM 37.9 °F - 37.0 °F 97% 30.06 in 10.0 mi Calm Calm - N/A   Clear
5:53 AM 39.0 °F - 37.9 °F 96% 30.07 in 8.0 mi Calm Calm - N/A   Partly Cloudy
6:53 AM 39.9 °F - 39.0 °F 97% 30.07 in 9.0 mi Calm Calm - N/A   Clear
7:53 AM 39.0 °F - 39.0 °F 100% 30.06 in 8.0 mi Calm Calm - N/A   Partly Cloudy
8:53 AM 42.1 °F - 39.9 °F 92% 30.06 in 10.0 mi Calm Calm - N/A   Clear
9:53 AM 44.1 °F - 41.0 °F 89% 30.07 in 10.0 mi Calm Calm - N/A   Clear
10:53 AM 46.9 °F - 43.0 °F 86% 30.09 in 10.0 mi North 3.5 mph - N/A   Scattered Clouds
11:53 AM 48.0 °F - 43.0 °F 83% 30.04 in 10.0 mi North 3.5 mph - N/A   Clear
12:53 PM 48.0 °F - 43.0 °F 83% 29.98 in 10.0 mi NNE 4.6 mph - N/A   Overcast
1:35 PM 48.2 °F - 42.8 °F 82% 29.96 in 6.0 mi NW 10.4 mph - 0.01 in Rain Light Rain
1:53 PM 46.9 °F - 44.1 °F 90% 29.94 in 10.0 mi North 5.8 mph - 0.02 in   Overcast
2:42 PM 46.4 °F 43.5 °F 44.6 °F 93% 29.91 in 1.8 mi NNE 5.8 mph - 0.08 in Rain Rain
3:13 PM 46.4 °F 44.3 °F 44.6 °F 93% 29.93 in 1.8 mi North 4.6 mph - 0.12 in Rain Rain
3:22 PM 46.4 °F 42.4 °F 44.6 °F 93% 29.91 in 2.5 mi North 8.1 mph - 0.16 in Rain Rain
3:30 PM 46.4 °F 42.4 °F 44.6 °F 93% 29.91 in 3.0 mi North 8.1 mph - 0.19 in Rain Rain
3:46 PM 46.4 °F 45.2 °F 44.6 °F 93% 29.94 in 2.5 mi Variable 3.5 mph - 0.25 in Rain Rain
3:53 PM 46.0 °F 43.9 °F 45.0 °F 96% 29.95 in 2.5 mi Variable 4.6 mph 19.6 mph 0.29 in Rain Rain
4:02 PM 46.4 °F 42.4 °F 44.6 °F 93% 29.92 in 1.8 mi NNE 8.1 mph - 0.04 in Rain Rain
4:08 PM 46.4 °F 42.4 °F 44.6 °F 93% 29.92 in 3.0 mi NE 8.1 mph - 0.06 in Rain Rain
4:18 PM 46.4 °F 42.4 °F 44.6 °F 93% 29.91 in 4.0 mi ENE 8.1 mph - N/A Rain Rain
4:53 PM 46.0 °F 43.9 °F 45.0 °F 96% 29.94 in 3.0 mi Variable 4.6 mph - 0.17 in Rain Rain
5:03 PM 46.4 °F - 44.6 °F 93% 29.94 in 4.0 mi Calm Calm - 0.03 in Rain Rain
5:53 PM 45.0 °F 42.6 °F 45.0 °F 100% 29.96 in 5.0 mi North 4.6 mph - 0.20 in Rain Rain
6:28 PM 44.6 °F 42.2 °F 44.6 °F 100% 29.97 in 6.0 mi North 4.6 mph - 0.09 in Rain Light Rain
7:33 PM 44.6 °F 40.7 °F 42.8 °F 93% 29.95 in 10.0 mi NNW 6.9 mph - 0.00 in   Overcast
7:53 PM 44.1 °F 40.8 °F 43.0 °F 96% 29.98 in 10.0 mi NW 5.8 mph - 0.00 in   Overcast
8:23 PM 44.6 °F 41.4 °F 42.8 °F 93% 29.99 in 5.0 mi NW 5.8 mph - 0.00 in Rain Light Rain
8:53 PM 44.1 °F 39.0 °F 43.0 °F 96% 30.03 in 5.0 mi NW 9.2 mph - 0.02 in Rain Light Rain
9:53 PM 44.1 °F 41.5 °F 43.0 °F 96% 30.06 in 10.0 mi WNW 4.6 mph - 0.00 in   Overcast
10:53 PM 44.1 °F - 43.0 °F 96% 30.06 in 10.0 mi Calm Calm - N/A   Overcast
11:37 PM 44.6 °F 40.7 °F 42.8 °F 93% 30.08 in 10.0 mi NW 6.9 mph - N/A   Overcast
11:53 PM 44.1 °F 40.1 °F 42.1 °F 93% 30.09 in 10.0 mi NW 6.9 mph - N/A   Overcast